TimeMDT,TemperatureF,Dew PointF,Humidity,Sea Level PressureIn,VisibilityMPH,Wind Direction,Wind SpeedMPH,Gust SpeedMPH,PrecipitationIn,Events,Conditions,WindDirDegrees,DateUTC
12:53 AM,57.9,51.1,78,29.95,10.0,West,4.6,-,N/A,,Clear,280,2013-09-17 06:53:00
1:53 AM,55.9,50.0,80,29.95,10.0,WNW,3.5,-,N/A,,Clear,290,2013-09-17 07:53:00
2:53 AM,55.9,50.0,80,29.93,10.0,WNW,3.5,-,N/A,,Clear,290,2013-09-17 08:53:00
3:53 AM,55.0,50.0,83,29.93,10.0,WNW,3.5,-,N/A,,Clear,290,2013-09-17 09:53:00
4:53 AM,55.0,50.0,83,29.92,10.0,NW,3.5,-,N/A,,Clear,310,2013-09-17 10:53:00
5:53 AM,55.0,50.0,83,29.92,10.0,West,3.5,-,N/A,,Clear,280,2013-09-17 11:53:00
6:53 AM,54.0,50.0,86,29.93,10.0,Calm,Calm,-,N/A,,Clear,0,2013-09-17 12:53:00
7:53 AM,57.0,51.1,81,29.94,10.0,Calm,Calm,-,N/A,,Clear,0,2013-09-17 13:53:00
8:53 AM,64.0,54.0,70,29.91,10.0,NE,3.5,-,N/A,,Clear,40,2013-09-17 14:53:00
9:53 AM,66.9,52.0,59,29.91,10.0,Calm,Calm,-,N/A,,Clear,0,2013-09-17 15:53:00
10:53 AM,70.0,52.0,53,29.89,10.0,Variable,3.5,-,N/A,,Mostly Cloudy,0,2013-09-17 16:53:00
11:53 AM,66.0,52.0,60,29.89,10.0,West,4.6,-,0.00,Rain,Light Rain,260,2013-09-17 17:53:00
12:53 PM,70.0,54.0,57,29.86,10.0,SSE,4.6,-,0.00,,Clear,160,2013-09-17 18:53:00
1:53 PM,72.0,53.1,51,29.81,10.0,South,6.9,-,N/A,,Clear,170,2013-09-17 19:53:00
2:53 PM,75.0,53.1,46,29.78,10.0,South,8.1,-,N/A,,Clear,170,2013-09-17 20:53:00
3:53 PM,75.0,53.1,46,29.73,10.0,South,6.9,-,N/A,,Scattered Clouds,170,2013-09-17 21:53:00
4:09 PM,75.2,53.6,47,29.87,10.0,South,6.9,-,N/A,Thunderstorm,Mostly Cloudy,170,2013-09-17 22:09:00
4:22 PM,75.2,53.6,47,29.86,10.0,South,12.7,-,N/A,Thunderstorm,Scattered Clouds,170,2013-09-17 22:22:00
4:53 PM,73.9,54.0,50,29.69,10.0,South,10.4,-,N/A,Thunderstorm,Mostly Cloudy,180,2013-09-17 22:53:00
5:22 PM,75.2,55.4,50,29.85,10.0,North,9.2,-,N/A,,Overcast,10,2013-09-17 23:22:00
5:53 PM,69.1,55.9,63,29.69,10.0,North,9.2,-,N/A,,Scattered Clouds,360,2013-09-17 23:53:00
6:53 PM,66.0,57.0,73,29.68,10.0,NNW,16.1,-,0.00,Rain,Light Rain,330,2013-09-18 00:53:00
7:02 PM,66.2,55.4,68,29.84,10.0,WSW,8.1,24.2,0.00,Thunderstorm,Thunderstorm,250,2013-09-18 01:02:00
7:20 PM,71.6,51.8,50,29.82,10.0,SSW,8.1,16.1,0.00,,Scattered Clouds,210,2013-09-18 01:20:00
7:53 PM,66.9,53.1,61,29.68,10.0,Variable,4.6,-,0.00,,Clear,0,2013-09-18 01:53:00
8:53 PM,62.1,55.9,80,29.68,10.0,Calm,Calm,-,N/A,,Partly Cloudy,0,2013-09-18 02:53:00
9:53 PM,62.1,57.0,84,29.67,10.0,NNW,4.6,-,N/A,,Mostly Cloudy,330,2013-09-18 03:53:00
10:41 PM,62.6,55.4,77,29.83,10.0,WNW,3.5,-,N/A,Thunderstorm,Clear,300,2013-09-18 04:41:00
10:53 PM,64.9,54.0,68,29.65,10.0,SSW,3.5,-,N/A,,Clear,210,2013-09-18 04:53:00
11:53 PM,61.0,55.0,81,29.67,10.0,Calm,Calm,-,N/A,,Clear,0,2013-09-18 05:53:00